Weather History for Cincinnati, OH

Change the Weather History Date:

Wednesday, July 3, 2013

  Actual Average Record
Temperature  
Mean Temperature 74 °F -  
Max Temperature 81 °F 85 °F 98 °F (1966)
Min Temperature 68 °F 65 °F 53 °F (2001)
Cooling Degree Days 9    
Growing Degree Days 24 (Base 50)    
Moisture  
Dew Point 68 °F    
Average Humidity 83    
Maximum Humidity 100    
Minimum Humidity 66    
Precipitation  
Precipitation 0.00 in - - ()
Sea Level Pressure  
Sea Level Pressure 30.08 in    
Wind  
Wind Speed 2 mph (South)    
Max Wind Speed 9 mph    
Max Gust Speed -    
Visibility 10 miles    
Events      
Averages and records for this station are not official NWS values.
T = Trace of Precipitation, MM = Missing Value Source: NWS Daily Summary

Daily Weather History Graph

Daily Weather History Graph

Search for Another Location

Airport:

Trip Planner

Search our weather history database for the weather conditions in past years. The results will help you decide how hot, cold, wet, or windy it might be!

Date:

Astronomy

Jul. 03, 2013 Rise Set
Actual Time 6:16 AM EDT 9:07 PM EDT
Civil Twilight 5:44 AM EDT 9:39 PM EDT
Nautical Twilight 5:04 AM EDT 10:19 PM EDT
Astronomical Twilight 4:18 AM EDT 11:05 PM EDT
Moon 2:53 AM EDT (7/3) 5:17 PM EDT (7/3)
Length of Visible Light 15h 54m
Length of Day
14h 50m
Waning Crescent, 18% of the Moon is Illuminated
Jul 3
Waning Crescent
Jul 8
New
Jul 15
First Quarter
Jul 22
Full
Jul 29
Last Quarter

Hourly Weather History & Observations

Time (EDT) Temp. Heat Index Dew Point Humidity Pressure Visibility Wind Dir Wind Speed Gust Speed Precip Events Conditions
12:53 AM 70.0 °F - 68.0 °F 93% 30.03 in 10.0 mi Calm Calm - N/A   Mostly Cloudy
1:53 AM 70.0 °F - 68.0 °F 93% 30.03 in 10.0 mi Calm Calm - N/A   Overcast
2:53 AM 68.0 °F - 66.9 °F 96% 30.03 in 10.0 mi Calm Calm - N/A   Mostly Cloudy
3:53 AM 68.0 °F - 68.0 °F 100% 30.03 in 10.0 mi SW 3.5 mph - N/A   Overcast
4:53 AM 68.0 °F - 66.9 °F 96% 30.04 in 9.0 mi Calm Calm - N/A   Mostly Cloudy
5:53 AM 68.0 °F - 66.9 °F 96% 30.06 in 10.0 mi Calm Calm - N/A   Overcast
6:53 AM 68.0 °F - 66.9 °F 96% 30.08 in 7.0 mi Calm Calm - N/A   Mostly Cloudy
7:53 AM 69.1 °F - 68.0 °F 96% 30.09 in 7.0 mi Calm Calm - N/A   Mostly Cloudy
8:53 AM 72.0 °F - 69.1 °F 91% 30.12 in 10.0 mi SSW 4.6 mph - N/A   Partly Cloudy
9:53 AM 73.9 °F - 68.0 °F 82% 30.13 in 10.0 mi SSW 3.5 mph - N/A   Clear
10:53 AM 77.0 °F - 68.0 °F 74% 30.12 in 10.0 mi SSW 4.6 mph - N/A   Clear
11:53 AM 79.0 °F - 66.9 °F 66% 30.11 in 10.0 mi South 3.5 mph - N/A   Partly Cloudy
12:53 PM 79.0 °F - 66.9 °F 66% 30.11 in 10.0 mi SSE 8.1 mph - N/A   Partly Cloudy
1:53 PM 80.1 °F 82.9 °F 69.1 °F 69% 30.11 in 10.0 mi SSE 9.2 mph - N/A   Scattered Clouds
2:53 PM 80.1 °F 82.7 °F 68.0 °F 67% 30.10 in 10.0 mi South 9.2 mph - N/A   Scattered Clouds
3:53 PM 79.0 °F - 68.0 °F 69% 30.09 in 10.0 mi South 6.9 mph - N/A   Mostly Cloudy
4:53 PM 79.0 °F - 68.0 °F 69% 30.09 in 10.0 mi South 5.8 mph - N/A   Partly Cloudy
5:53 PM 78.1 °F - 68.0 °F 71% 30.08 in 10.0 mi South 4.6 mph - N/A   Partly Cloudy
6:53 PM 78.1 °F - 70.0 °F 76% 30.08 in 10.0 mi Calm Calm - N/A   Clear
7:53 PM 75.9 °F - 69.1 °F 79% 30.08 in 10.0 mi South 3.5 mph - N/A   Mostly Cloudy
8:53 PM 75.0 °F - 70.0 °F 84% 30.08 in 10.0 mi South 3.5 mph - N/A   Overcast
9:53 PM 73.9 °F - 70.0 °F 87% 30.09 in 10.0 mi SSE 3.5 mph - N/A   Mostly Cloudy
10:53 PM 73.0 °F - 70.0 °F 90% 30.10 in 10.0 mi Calm Calm - N/A   Mostly Cloudy
11:53 PM 72.0 °F - 71.1 °F 97% 30.11 in 7.0 mi South 3.5 mph - 0.00 in   Mostly Cloudy